Location: Maccacari
(45.1333°N, 11.1333°E)
Time: 05:39:50
(UTC+00:00)

deb Explorer IX - All Passes

Search period start: 28 January 2021 00:00
Search period end: 07 February 2021 00:00
Orbit: 536 x 1104 km, 38.8° (Epoch: 27 January)

Date Brightness Start Highest point End Pass type
(mag) Time Alt. Az. Time Alt. Az. Time Alt. Az.
28 Jan - 13:06:36 10° SSE 13:08:42 11° SE 13:10:45 10° SE daylight
28 Jan - 14:48:50 10° SW 14:54:52 30° SSE 15:00:25 10° E daylight
28 Jan - 16:34:57 10° WSW 16:41:30 47° S 16:47:14 10° ESE visible
28 Jan - 18:22:08 10° W 18:28:09 42° SSW 18:33:20 10° ESE visible
28 Jan - 20:10:05 10° WSW 20:14:15 20° SSW 20:18:00 10° SSE visible
29 Jan - 12:42:37 10° SSE 12:44:54 12° SE 12:47:09 10° ESE daylight
29 Jan - 14:24:56 10° SW 14:31:04 30° SSE 14:36:46 10° E daylight
29 Jan - 16:11:03 10° WSW 16:17:43 47° S 16:23:38 10° ESE daylight
29 Jan - 17:58:13 10° W 18:04:25 43° SSW 18:09:46 10° ESE visible
29 Jan - 19:46:09 10° WSW 19:50:33 21° SSW 19:54:30 10° SSE visible
30 Jan - 12:18:41 10° SSE 12:21:05 12° SE 12:23:29 10° ESE daylight
30 Jan - 14:01:02 10° SW 14:07:15 31° SSE 14:13:06 10° E daylight
30 Jan - 15:47:08 10° WSW 15:53:56 48° S 16:00:01 10° ESE daylight
30 Jan - 17:34:17 10° W 17:40:40 44° SSW 17:46:12 10° ESE visible
30 Jan - 19:22:13 10° WSW 19:26:51 22° SSW 19:31:00 10° SSE visible
31 Jan - 11:54:47 10° SSE 11:57:17 12° SE 11:59:46 10° ESE daylight
31 Jan - 13:37:10 10° SW 13:43:25 31° SSE 13:49:23 10° E daylight
31 Jan - 15:23:14 10° WSW 15:30:07 49° S 15:36:22 10° ESE daylight
31 Jan - 17:10:22 10° W 17:16:53 45° SSW 17:22:37 10° ESE visible
31 Jan - 18:58:16 10° W 19:03:08 23° SSW 19:07:28 10° SSE visible
01 Feb - 11:30:56 10° SSE 11:33:28 12° SE 11:35:59 10° ESE daylight
01 Feb - 13:13:18 10° SW 13:19:34 32° SSE 13:25:38 10° E daylight
01 Feb - 14:59:19 10° WSW 15:06:17 49° S 15:12:41 10° E daylight
01 Feb - 16:46:27 10° W 16:53:06 45° SSW 16:59:00 10° ESE visible
01 Feb - 18:34:19 10° W 18:39:23 24° SSW 18:43:55 10° SSE visible
02 Feb - 11:07:08 10° SSE 11:09:38 12° SE 11:12:09 10° ESE daylight
02 Feb - 12:49:26 10° SW 12:55:43 32° SSE 13:01:53 10° E daylight
02 Feb - 14:35:26 10° WSW 14:42:27 50° S 14:48:58 10° E daylight
02 Feb - 16:22:32 10° W 16:29:17 46° SSW 16:35:21 10° ESE daylight
02 Feb - 18:10:22 10° W 18:15:37 24° SSW 18:20:20 10° SSE visible
03 Feb - 10:43:23 10° SSE 10:45:49 12° SE 10:48:16 10° ESE daylight
03 Feb - 12:25:36 10° SW 12:31:51 32° SSE 12:38:05 10° E daylight
03 Feb - 14:11:33 10° WSW 14:18:35 50° S 14:25:15 10° E daylight
03 Feb - 15:58:37 10° W 16:05:28 47° SSW 16:11:41 10° ESE daylight
03 Feb - 17:46:25 10° W 17:51:50 25° SSW 17:56:45 10° SSE visible
04 Feb - 10:19:40 10° SSE 10:21:59 12° SE 10:24:20 10° ESE daylight
04 Feb - 12:01:47 10° SW 12:08:00 32° SSE 12:14:16 10° E daylight
04 Feb - 13:47:42 10° WSW 13:54:43 50° S 14:01:30 10° E daylight
04 Feb - 15:34:42 10° W 15:41:37 47° SSW 15:47:59 10° ESE daylight
04 Feb - 17:22:29 10° W 17:28:02 26° SSW 17:33:07 10° SSE visible
05 Feb - 09:56:00 10° SSE 09:58:10 12° SE 10:00:22 10° ESE daylight
05 Feb - 11:38:00 10° SW 11:44:08 32° SSE 11:50:26 10° E daylight
05 Feb - 13:23:51 10° WSW 13:30:50 50° S 13:37:43 10° E daylight
05 Feb - 15:10:48 10° W 15:17:46 47° SSW 15:24:17 10° ESE daylight
05 Feb - 16:58:32 10° W 17:04:13 26° SSW 17:09:28 10° SSE visible
06 Feb - 09:32:24 10° SSE 09:34:21 11° SE 09:36:19 10° ESE daylight
06 Feb - 11:14:12 10° SW 11:20:17 32° SSE 11:26:34 10° E daylight
06 Feb - 13:00:01 10° WSW 13:06:58 50° S 13:13:54 10° E daylight
06 Feb - 14:46:55 10° W 14:53:54 48° S 15:00:32 10° ESE daylight
06 Feb - 16:34:36 10° W 16:40:24 27° SSW 16:45:48 10° SSE daylight
